EW4799 Weather Reports


time (UTC)temp
F
wind
direction
speed
knots
gust
knots
rain 1hr
in
rain 24hr
in
rain mn
in
humidity
%
barometer
mb
20260903171600 61 211 0.0 1.7 0.00 0.25 0.04 74 1009.7
20260903164611 59 174 0.0 0.9 0.00 0.25 0.04 77 1009.6
20260903163101 58 0 0.0 1.7 0.00 0.25 0.04 83 1009.7
20260903161557 57 236 0.0 0.9 0.00 0.25 0.04 86 1009.7
20260903160113 56 0 0.0 0.0 0.00 0.25 0.04 85 1009.6
20260903154610 55 0 0.0 0.0 0.00 0.25 0.04 84 1009.7
20260903153057 55 0 0.0 0.9 0.00 0.25 0.04 85 1009.6
20260903151601 55 0 0.0 0.9 0.00 0.25 0.04 85 1009.6
20260903150101 55 0 0.0 0.9 0.00 0.25 0.04 85 1009.7
20260903144607 55 0 0.0 0.9 0.01 0.25 0.04 84 1009.6
20260903143111 54 0 0.0 0.9 0.01 0.25 0.04 85 1009.5
20260903141606 54 0 0.0 1.7 0.01 0.25 0.04 84 1009.4
20260903140107 54 0 0.0 0.0 0.01 0.25 0.04 84 1009.3
20260903134605 54 0 0.0 0.0 0.01 0.24 0.03 85 1009.3
20260903133105 54 0 0.0 0.0 0.02 0.24 0.03 86 1009.2
20260903131601 54 0 0.0 0.0 0.02 0.24 0.03 87 1009.2
20260903124600 54 0 0.0 1.7 0.01 0.23 0.02 87 1009.2
20260903123058 54 0 0.0 2.6 0.00 0.22 0.01 84 1009.1
20260903121600 54 0 0.0 0.0 0.00 0.22 0.01 84 1008.7
20260903120107 54 0 0.0 0.0 0.00 0.22 0.01 84 1008.5
20260903114605 54 0 0.0 0.0 0.00 0.22 0.01 85 1008.5
20260903113102 54 0 0.0 0.0 0.00 0.22 0.01 84 1008.4
20260903111604 54 0 0.0 0.0 0.00 0.22 0.01 85 1008.5
20260903110103 54 0 0.0 0.0 0.00 0.22 0.01 85 1008.6
20260903104610 54 0 0.0 0.0 0.01 0.22 0.01 85 1008.5
20260903103106 54 0 0.0 0.0 0.01 0.22 0.01 86 1008.4
20260903101609 54 0 0.0 0.0 0.01 0.22 0.01 86 1008.3
20260903100109 54 0 0.0 0.0 0.01 0.22 0.01 87 1008.5
20260903094607 54 0 0.0 0.0 0.00 0.21 0.00 87 1008.6
20260903093115 54 0 0.0 0.0 0.00 0.21 0.00 87 1008.4
20260903091607 53 0 0.0 0.0 0.00 0.21 0.00 87 1008.3
20260903090105 53 0 0.0 0.0 0.00 0.21 0.00 87 1008.2
20260903084555 53 0 0.0 0.0 0.00 0.21 0.00 87 1008.2
20260903083100 53 0 0.0 0.0 0.00 0.21 0.00 87 1008.2
20260903081600 53 0 0.0 0.0 0.00 0.21 0.00 87 1008.2
20260903080059 54 0 0.0 0.0 0.00 0.21 0.00 86 1008.3
20260903074600 54 0 0.0 0.0 0.00 0.21 0.00 85 1008.3
20260903073100 56 0 0.0 0.0 0.00 0.21 0.00 83 1008.3
20260903071556 56 0 0.0 0.9 0.00 0.21 0.00 82 1008.2
20260903070100 56 0 0.0 0.0 0.00 0.21 0.00 81 1008.2
20260903064559 57 184 0.0 2.6 0.00 0.21 0.21 80 1008.1
20260903063125 56 195 0.0 2.6 0.00 0.21 0.21 82 1008.1
20260903061600 56 0 0.0 0.9 0.00 0.21 0.21 83 1007.9
20260903060115 56 262 0.0 0.9 0.00 0.21 0.21 83 1008.0
20260903054559 56 0 0.0 0.0 0.00 0.21 0.21 84 1008.0
20260903053059 56 0 0.0 0.9 0.00 0.21 0.21 84 1008.1
20260903051601 57 0 0.0 0.0 0.00 0.21 0.21 85 1008.0
20260903050127 57 0 0.0 0.0 0.00 0.21 0.21 85 1008.0
20260903044556 57 0 0.0 0.9 0.00 0.21 0.21 85 1008.0
20260903043056 58 206 0.0 1.7 0.00 0.21 0.21 85 1007.9
20260903041601 57 0 0.0 1.7 0.00 0.21 0.21 85 1007.8
20260903040104 57 212 0.0 0.9 0.00 0.21 0.21 86 1007.8
20260903034554 57 0 0.0 0.9 0.00 0.21 0.21 86 1007.5
20260903033103 57 0 0.0 0.0 0.00 0.21 0.21 86 1007.3
20260903031557 58 0 0.0 0.9 0.00 0.21 0.21 86 1007.2
20260903030059 58 0 0.0 1.7 0.00 0.21 0.21 85 1007.0
20260903024557 59 170 0.0 0.9 0.00 0.21 0.21 84 1006.9
20260903023057 59 0 0.0 1.7 0.00 0.21 0.21 82 1006.7
20260903021605 60 187 0.9 4.3 0.01 0.21 0.21 82 1006.6
20260903020059 60 0 1.7 6.1 0.01 0.21 0.21 81 1006.3
20260903014556 60 165 1.7 5.2 0.01 0.21 0.21 81 1006.2
20260903013054 60 193 1.7 6.1 0.02 0.21 0.21 85 1006.1
20260903011611 60 191 0.9 6.1 0.01 0.20 0.20 86 1005.7
20260903010059 60 165 0.9 3.5 0.01 0.20 0.20 86 1005.6
20260903004557 60 175 0.9 3.5 0.01 0.20 0.20 86 1005.4
20260903003102 60 0 0.0 5.2 0.01 0.19 0.19 85 1005.3
20260903001600 60 0 0.0 1.7 0.01 0.19 0.19 83 1004.8
20260903000101 59 0 0.0 0.9 0.03 0.19 0.19 83 1005.0
20260902234557 59 0 0.0 1.7 0.05 0.19 0.19 84 1004.8
20260902233104 59 0 0.0 0.9 0.05 0.18 0.18 85 1005.0
20260902231609 60 0 0.0 0.9 0.07 0.18 0.18 85 1005.6
20260902230100 60 0 0.0 0.9 0.07 0.16 0.16 85 1005.5
20260902224601 60 0 0.0 0.9 0.07 0.14 0.14 85 1005.2
20260902223107 60 210 0.0 1.7 0.06 0.13 0.13 86 1005.3
20260902221601 61 0 0.0 1.7 0.05 0.11 0.11 86 1005.3
20260902220105 61 0 0.0 3.5 0.04 0.09 0.09 85 1005.2
20260902214602 62 160 0.9 3.5 0.02 0.07 0.07 83 1005.2
20260902213059 63 162 0.0 2.6 0.02 0.07 0.07 80 1005.4
20260902211604 64 150 0.9 2.6 0.01 0.06 0.06 78 1005.4
20260902210100 65 0 0.0 4.3 0.02 0.05 0.05 77 1005.3
20260902204605 64 165 0.0 1.7 0.05 0.05 0.05 81 1005.2
20260902203100 63 0 0.0 0.9 0.05 0.05 0.05 82 1005.3
20260902201557 63 203 0.0 1.7 0.05 0.05 0.05 83 1005.5
20260902200113 65 0 1.7 7.8 0.03 0.03 0.03 73 1005.6
20260902194600 69 179 2.6 12.2 0.00 0.00 0.00 58 1005.8
20260902193107 71 281 0.0 4.3 0.00 0.00 0.00 54 1005.4
20260902191604 70 188 0.9 2.6 0.00 0.00 0.00 55 1005.5
20260902190104 70 161 0.0 2.6 0.00 0.00 0.00 57 1005.6
20260902184658 69 178 0.0 1.7 0.00 0.00 0.00 59 1005.6
20260902183108 68 190 0.0 1.7 0.00 0.00 0.00 59 1005.8
20260902181604 67 0 0.0 3.5 0.00 0.00 0.00 63 1006.0
20260902180131 67 0 0.0 0.9 0.00 0.00 0.00 65 1006.2
20260902174601 66 0 0.0 1.7 0.00 0.00 0.00 66 1006.3
20260902173105 66 174 0.0 0.9 0.00 0.00 0.00 65 1006.4